Date String (YYYY-MM-DD hh:mm:ss) UTC,Instrument flags,Ambient pressure (hPa),Sample flow (lpm),Bypass flow (lpm),Sample temperature (°C),Ambient temperature (°C),ASC tube jacket temperature (°C),LED temperature (°C),Box temperature (°C),Sample RH (%),Span deviation,Mass concentration (μg/m³),Mass concentration (μg/m³),Mass concentration (μg/m³)
DateTimeUTC,F1_M11,P_M11,Q1_M11,Q2_M11,T1_M11,T2_M11,T3_M11,T4_M11,T5_M11,U1_M11,ZSPAN_M11,X2_M11,X0_M11,X1_M11
2023-03-03 08:00:00,,0813.9,5.00,0.00,22.4,20.7,00.0,31.2,24.1,13.2,-000.0,0007.45,0013.76,0007.06
2023-03-03 08:01:00,,0813.9,5.00,0.00,22.4,20.7,00.0,31.2,24.1,13.2,0000.1,0007.40,0014.24,0007.00
2023-03-03 08:02:00,,0813.9,5.00,0.00,22.4,20.6,00.0,31.1,24.0,13.3,0000.1,0007.40,0014.32,0006.98
2023-03-03 08:03:00,,0813.9,5.01,0.00,22.3,20.5,00.0,31.1,24.0,13.3,0000.5,0007.39,0013.88,0006.95
2023-03-03 08:04:00,,0813.9,4.99,0.00,22.3,20.6,00.0,31.1,24.0,13.3,0000.2,0007.45,0013.58,0006.98
2023-03-03 08:05:00,,0814.2,5.01,0.00,22.3,20.6,00.0,31.1,24.0,13.3,-000.5,0007.51,0013.15,0007.02
2023-03-03 08:06:00,,0814.3,5.01,0.00,22.3,20.6,00.0,31.1,23.9,13.3,-000.3,0007.51,0013.13,0007.03
2023-03-03 08:07:00,,0814.0,5.00,0.00,22.3,20.5,00.0,31.1,23.9,13.3,-000.0,0007.52,0013.63,0007.04
2023-03-03 08:08:00,,0813.9,5.00,0.00,22.2,20.8,00.0,31.1,24.0,13.4,-000.5,0007.58,0013.72,0007.07
2023-03-03 08:09:00,,0813.9,4.99,0.00,22.3,21.9,00.0,31.1,24.2,13.3,-000.7,0007.60,0013.32,0007.07
2023-03-03 08:10:00,,0813.9,4.99,0.00,22.5,23.0,00.0,31.1,24.5,13.2,-000.5,0007.61,0014.14,0007.04
2023-03-03 08:11:00,,0813.9,5.02,0.00,22.6,23.1,00.0,31.1,24.5,13.1,-000.4,0007.64,0014.69,0007.05
2023-03-03 08:12:00,,0813.9,5.00,0.00,22.6,22.6,00.0,31.2,24.5,13.1,-000.5,0007.67,0014.43,0007.07
2023-03-03 08:13:00,,0813.8,4.98,0.00,22.6,22.2,00.0,31.2,24.4,13.2,-000.7,0007.68,0014.05,0007.10
2023-03-03 08:14:00,,0813.9,5.01,0.00,22.6,21.9,00.0,31.2,24.3,13.2,-001.3,0007.73,0013.97,0007.16
2023-03-03 08:15:00,,0814.1,4.98,0.00,22.6,21.7,00.0,31.2,24.3,13.2,-000.7,0007.78,0014.13,0007.20
2023-03-03 08:16:00,,0814.3,4.99,0.00,22.6,21.5,00.0,31.2,24.2,13.2,-000.1,0007.85,0014.74,0007.23
2023-03-03 08:17:00,,0814.3,4.99,0.00,22.6,21.4,00.0,31.2,24.3,13.1,-000.2,0007.86,0014.84,0007.26
2023-03-03 08:18:00,,0814.3,5.00,0.00,22.5,21.2,00.0,31.2,24.2,13.1,-000.2,0007.89,0014.50,0007.29
2023-03-03 08:19:00,,0814.3,4.99,0.00,22.5,21.1,00.0,31.2,24.2,13.1,0000.2,0007.87,0015.07,0007.30
2023-03-03 08:20:00,,0814.2,5.01,0.00,22.5,21.1,00.0,31.2,24.2,13.1,-000.1,0007.90,0015.25,0007.33
2023-03-03 08:21:00,,0814.1,5.02,0.00,22.5,21.0,00.0,31.2,24.2,13.1,0000.1,0007.90,0014.41,0007.36
2023-03-03 08:22:00,,0814.3,5.00,0.00,22.5,21.0,00.0,31.2,24.2,13.1,0000.3,0007.88,0014.78,0007.36
2023-03-03 08:23:00,,0814.2,4.99,0.00,22.5,20.9,00.0,31.2,24.2,13.1,0000.5,0007.84,0014.54,0007.34
2023-03-03 08:24:00,,0814.2,4.99,0.00,22.5,20.9,00.0,31.2,24.2,13.1,0001.0,0007.79,0015.27,0007.30
2023-03-03 08:25:00,,0814.2,5.01,0.00,22.4,20.8,00.0,31.2,24.1,13.1,0001.3,0007.72,0016.14,0007.23
2023-03-03 08:26:00,,0814.2,5.01,0.00,22.4,20.8,00.0,31.2,24.1,13.1,0001.0,0007.63,0016.21,0007.16
2023-03-03 08:27:00,,0814.2,5.00,0.00,22.4,20.8,00.0,31.2,24.1,13.1,0001.0,0007.56,0015.72,0007.11
2023-03-03 08:28:00,,0814.1,5.01,0.00,22.4,20.8,00.0,31.2,24.1,13.1,0000.9,0007.56,0015.77,0007.09
2023-03-03 08:29:00,,0813.6,5.01,0.00,22.4,20.7,00.0,31.2,24.1,13.1,0000.8,0007.52,0015.65,0007.04
2023-03-03 08:30:00,,0813.6,4.99,0.00,22.4,20.7,00.0,31.2,24.0,13.2,0000.5,0007.49,0014.90,0007.01
2023-03-03 08:31:00,,0813.6,5.00,0.00,22.3,20.7,00.0,31.2,24.0,13.2,0000.2,0007.44,0014.82,0006.99
2023-03-03 08:32:00,,0813.6,5.01,0.00,22.3,20.6,00.0,31.1,23.9,13.2,0000.0,0007.45,0015.52,0006.98
2023-03-03 08:33:00,,0813.6,5.00,0.00,22.3,20.6,00.0,31.1,23.9,13.2,-000.3,0007.47,0015.45,0006.97
2023-03-03 08:34:00,,0813.5,4.99,0.00,22.3,20.7,00.0,31.1,24.0,13.2,-000.6,0007.48,0015.17,0006.97
2023-03-03 08:35:00,,0813.5,4.97,0.00,22.3,21.7,00.0,31.1,24.2,13.2,-001.2,0007.51,0015.69,0006.97
2023-03-03 08:36:00,,0813.6,5.00,0.00,22.5,22.8,00.0,31.1,24.4,13.2,-001.5,0007.55,0014.73,0006.99
2023-03-03 08:37:00,,0813.6,5.02,0.00,22.6,23.0,00.0,31.1,24.5,13.3,-001.6,0007.68,0014.69,0007.10
2023-03-03 08:38:00,,0813.5,4.98,0.00,22.6,22.6,00.0,31.2,24.5,13.2,-001.9,0007.77,0016.42,0007.17
2023-03-03 08:39:00,,0813.5,5.01,0.00,22.6,22.2,00.0,31.2,24.4,13.1,-001.8,0007.78,0016.49,0007.20
2023-03-03 08:40:00,,0813.5,4.99,0.00,22.6,21.9,00.0,31.2,24.4,13.2,-001.5,0007.88,0016.96,0007.30
2023-03-03 08:41:00,,0813.6,5.00,0.00,22.6,21.7,00.0,31.2,24.3,13.3,-001.6,0008.04,0017.72,0007.44
2023-03-03 08:42:00,,0813.6,5.00,0.00,22.6,21.5,00.0,31.2,24.3,13.3,-001.5,0008.20,0018.52,0007.58
2023-03-03 08:43:00,,0813.5,5.02,0.00,22.5,21.4,00.0,31.2,24.2,13.2,-001.1,0008.26,0018.22,0007.62
2023-03-03 08:44:00,,0813.5,4.99,0.00,22.5,21.3,00.0,31.2,24.2,13.2,-000.8,0008.31,0018.15,0007.68
2023-03-03 08:45:00,,0813.5,5.00,0.00,22.5,21.2,00.0,31.2,24.2,13.2,-000.2,0008.42,0018.46,0007.78
2023-03-03 08:46:00,,0813.4,5.00,0.00,22.5,21.1,00.0,31.2,24.2,13.2,0000.3,0008.53,0018.50,0007.89
2023-03-03 08:47:00,,0813.3,5.01,0.00,22.5,21.0,00.0,31.2,24.2,13.3,0000.3,0008.59,0018.24,0007.99
2023-03-03 08:48:00,,0813.3,5.01,0.00,22.5,21.0,00.0,31.2,24.2,13.3,0000.2,0008.59,0018.22,0008.03
2023-03-03 08:49:00,,0813.4,5.00,0.00,22.5,21.0,00.0,31.2,24.2,13.3,0000.4,0008.62,0017.19,0008.07
2023-03-03 08:50:00,,0813.4,4.99,0.00,22.5,20.9,00.0,31.2,24.1,13.4,0000.4,0008.71,0016.52,0008.15
2023-03-03 08:51:00,,0813.5,5.01,0.00,22.4,20.9,00.0,31.2,24.1,13.3,0000.3,0008.69,0017.11,0008.14
2023-03-03 08:52:00,,0813.5,5.00,0.00,22.4,20.8,00.0,31.2,24.1,13.3,0000.2,0008.64,0017.46,0008.07
2023-03-03 08:53:00,,0813.5,4.98,0.00,22.4,20.7,00.0,31.2,24.1,13.3,0000.5,0008.55,0016.66,0008.00
2023-03-03 08:54:00,,0813.5,5.02,0.00,22.4,20.7,00.0,31.2,24.1,13.3,0000.3,0008.56,0016.29,0008.02
2023-03-03 08:55:00,,0813.5,5.02,0.00,22.4,20.7,00.0,31.2,24.1,13.3,-000.1,0008.59,0015.90,0008.04
2023-03-03 08:56:00,,0813.5,4.98,0.00,22.4,20.7,00.0,31.2,24.1,13.4,-000.3,0008.59,0015.80,0008.05
2023-03-03 08:57:00,,0813.4,5.00,0.00,22.3,20.7,00.0,31.1,24.1,13.4,-000.6,0008.56,0015.32,0008.05
2023-03-03 08:58:00,,0813.4,5.01,0.00,22.3,20.7,00.0,31.1,24.0,13.3,-000.6,0008.53,0015.11,0008.04
2023-03-03 08:59:00,,0813.5,5.00,0.00,22.4,21.2,00.0,31.1,24.1,13.1,-000.4,0008.44,0014.91,0007.94
